Back to catalog

KUIPER-00428

AliveCommunicationsVLEO
NORAD 69593·PAYLOAD·🇺🇸 United States

Launched Jun 17, 2026 from Guiana Space Centre

Loading…

Next Passes (next 24 hours)

TLE

FreshSource: CelesTrak SupGP

Epoch: Sep 14, 2026, 13:03 UTC

1 69593C 26140B   26257.54420139  .00008124  00000+0  21472-3 0  2575
2 69593  51.8811 326.9007 0005449 249.5475 233.0565 15.37797920    18

Track KUIPER-00428 in real time with AllMySat

Download on the App Store